| time (UTC) | temp F | wind direction | speed MPH | gust MPH | rain 1hr in | rain 24hr in | rain mn in | humidity % | barometer mb |
| 20260507141516 | 70 | 53 | 1.0 | 4.0 | 0.00 | 0.00 | 0.00 | 28 | 1014.7 |
| 20260507141017 | 69 | 56 | 1.0 | 4.0 | 0.00 | 0.00 | 0.00 | 28 | 1014.7 |
| 20260507140516 | 69 | 98 | 1.0 | 3.0 | 0.00 | 0.00 | 0.00 | 32 | 1014.7 |
| 20260507140017 | 68 | 44 | 1.0 | 3.0 | 0.00 | 0.00 | 0.00 | 34 | 1014.7 |
| 20260507135516 | 68 | 25 | 0.0 | 3.0 | 0.00 | 0.00 | 0.00 | 37 | 1014.6 |
| 20260507135017 | 67 | 3 | 0.0 | 1.0 | 0.00 | 0.00 | 0.00 | 34 | 1014.6 |
| 20260507134517 | 66 | 4 | 0.0 | 1.0 | 0.00 | 0.00 | 0.00 | 34 | 1014.6 |
| 20260507134017 | 66 | 100 | 0.0 | 2.0 | 0.00 | 0.00 | 0.00 | 33 | 1014.6 |
| 20260507133517 | 65 | 37 | 1.0 | 2.0 | 0.00 | 0.00 | 0.00 | 33 | 1014.5 |
| 20260507133016 | 65 | 49 | 0.0 | 2.0 | 0.00 | 0.00 | 0.00 | 34 | 1014.5 |
| 20260507132516 | 64 | 14 | 0.0 | 2.0 | 0.00 | 0.00 | 0.00 | 33 | 1014.5 |
| 20260507132017 | 64 | 86 | 0.0 | 2.0 | 0.00 | 0.00 | 0.00 | 34 | 1014.4 |
| 20260507131517 | 64 | 71 | 1.0 | 3.0 | 0.00 | 0.00 | 0.00 | 34 | 1014.4 |
| 20260507131017 | 63 | 73 | 1.0 | 3.0 | 0.00 | 0.00 | 0.00 | 35 | 1014.4 |
| 20260507130517 | 63 | 84 | 0.0 | 1.0 | 0.00 | 0.00 | 0.00 | 35 | 1014.3 |
| 20260507130017 | 63 | 41 | 0.0 | 3.0 | 0.00 | 0.00 | 0.00 | 35 | 1014.3 |
| 20260507125517 | 63 | 42 | 0.0 | 3.0 | 0.00 | 0.00 | 0.00 | 36 | 1014.3 |
| 20260507125017 | 63 | 66 | 0.0 | 0.0 | 0.00 | 0.00 | 0.00 | 35 | 1014.2 |
| 20260507124516 | 63 | 57 | 0.0 | 2.0 | 0.00 | 0.00 | 0.00 | 35 | 1014.2 |
| 20260507124017 | 63 | 65 | 0.0 | 2.0 | 0.00 | 0.00 | 0.00 | 34 | 1014.2 |
| 20260507123517 | 63 | 65 | 1.0 | 4.0 | 0.00 | 0.00 | 0.00 | 34 | 1014.2 |
| 20260507123017 | 63 | 20 | 2.0 | 5.0 | 0.00 | 0.00 | 0.00 | 35 | 1014.2 |
| 20260507122517 | 63 | 28 | 3.0 | 5.0 | 0.00 | 0.00 | 0.00 | 35 | 1014.2 |
| 20260507122017 | 63 | 16 | 2.0 | 5.0 | 0.00 | 0.00 | 0.00 | 35 | 1014.3 |
| 20260507121517 | 63 | 19 | 1.0 | 4.0 | 0.00 | 0.00 | 0.00 | 35 | 1014.3 |
| 20260507121017 | 63 | 55 | 2.0 | 4.0 | 0.00 | 0.00 | 0.00 | 34 | 1014.3 |
| 20260507120516 | 63 | 73 | 1.0 | 4.0 | 0.00 | 0.00 | 0.00 | 34 | 1014.3 |
| 20260507120017 | 63 | 21 | 1.0 | 3.0 | 0.00 | 0.00 | 0.00 | 34 | 1014.3 |
| 20260507115516 | 63 | 13 | 2.0 | 5.0 | 0.00 | 0.00 | 0.00 | 34 | 1014.4 |
| 20260507115016 | 63 | 0 | 3.0 | 5.0 | 0.00 | 0.00 | 0.00 | 34 | 1014.4 |
| 20260507114517 | 63 | 21 | 4.0 | 8.0 | 0.00 | 0.00 | 0.00 | 34 | 1014.4 |
| 20260507114016 | 63 | 21 | 5.0 | 9.0 | 0.00 | 0.00 | 0.00 | 34 | 1014.5 |
| 20260507113517 | 63 | 6 | 5.0 | 9.0 | 0.00 | 0.00 | 0.00 | 34 | 1014.5 |
| 20260507113017 | 63 | 0 | 3.0 | 7.0 | 0.00 | 0.00 | 0.00 | 34 | 1014.5 |
| 20260507112517 | 63 | 1 | 3.0 | 7.0 | 0.00 | 0.00 | 0.00 | 35 | 1014.5 |
| 20260507112016 | 63 | 243 | 3.0 | 7.0 | 0.00 | 0.00 | 0.00 | 35 | 1014.6 |
| 20260507111516 | 63 | 27 | 2.0 | 5.0 | 0.00 | 0.00 | 0.00 | 36 | 1014.6 |
| 20260507111016 | 63 | 3 | 2.0 | 4.0 | 0.00 | 0.00 | 0.00 | 37 | 1014.6 |
| 20260507110516 | 63 | 19 | 1.0 | 4.0 | 0.00 | 0.00 | 0.00 | 37 | 1014.7 |
| 20260507110016 | 63 | 8 | 1.0 | 4.0 | 0.00 | 0.00 | 0.00 | 36 | 1014.7 |
| 20260507105517 | 63 | 34 | 0.0 | 0.0 | 0.00 | 0.00 | 0.00 | 38 | 1014.7 |
| 20260507105017 | 64 | 53 | 0.0 | 0.0 | 0.00 | 0.00 | 0.00 | 36 | 1014.8 |
| 20260507104516 | 64 | 53 | 0.0 | 0.0 | 0.00 | 0.00 | 0.00 | 36 | 1014.8 |
| 20260507104017 | 64 | 54 | 0.0 | 0.0 | 0.00 | 0.00 | 0.00 | 36 | 1014.8 |
| 20260507103517 | 64 | 53 | 0.0 | 0.0 | 0.00 | 0.00 | 0.00 | 36 | 1014.8 |
| 20260507103016 | 64 | 48 | 1.0 | 3.0 | 0.00 | 0.00 | 0.00 | 36 | 1014.8 |
| 20260507102516 | 64 | 63 | 1.0 | 3.0 | 0.00 | 0.00 | 0.00 | 35 | 1014.9 |
| 20260507102017 | 64 | 79 | 0.0 | 2.0 | 0.00 | 0.00 | 0.00 | 36 | 1014.9 |
| 20260507101517 | 64 | 253 | 0.0 | 0.0 | 0.00 | 0.00 | 0.00 | 36 | 1014.9 |
| 20260507101017 | 64 | 15 | 0.0 | 0.0 | 0.00 | 0.00 | 0.00 | 35 | 1014.9 |
| 20260507100517 | 64 | 13 | 0.0 | 0.0 | 0.00 | 0.00 | 0.00 | 36 | 1014.9 |
| 20260507100017 | 64 | 24 | 0.0 | 0.0 | 0.00 | 0.00 | 0.00 | 36 | 1014.9 |
| 20260507095517 | 64 | 16 | 0.0 | 0.0 | 0.00 | 0.00 | 0.00 | 36 | 1014.9 |
| 20260507095016 | 64 | 18 | 0.0 | 0.0 | 0.00 | 0.00 | 0.00 | 35 | 1014.9 |
| 20260507094516 | 64 | 16 | 0.0 | 0.0 | 0.00 | 0.00 | 0.00 | 36 | 1014.9 |
| 20260507094016 | 64 | 17 | 0.0 | 0.0 | 0.00 | 0.00 | 0.00 | 35 | 1014.9 |
| 20260507093516 | 64 | 16 | 0.0 | 0.0 | 0.00 | 0.00 | 0.00 | 35 | 1014.9 |
| 20260507093017 | 64 | 15 | 0.0 | 0.0 | 0.00 | 0.00 | 0.00 | 35 | 1014.9 |
| 20260507092516 | 64 | 16 | 0.0 | 0.0 | 0.00 | 0.00 | 0.00 | 35 | 1014.9 |
| 20260507092016 | 64 | 13 | 0.0 | 3.0 | 0.00 | 0.00 | 0.00 | 34 | 1014.9 |
| 20260507091517 | 64 | 13 | 1.0 | 3.0 | 0.00 | 0.00 | 0.00 | 34 | 1014.9 |
| 20260507091016 | 64 | 10 | 1.0 | 5.0 | 0.00 | 0.00 | 0.00 | 34 | 1014.9 |
| 20260507090517 | 64 | 12 | 0.0 | 5.0 | 0.00 | 0.00 | 0.00 | 34 | 1015.0 |
| 20260507090016 | 65 | 3 | 1.0 | 3.0 | 0.00 | 0.00 | 0.00 | 34 | 1015.0 |
| 20260507085516 | 65 | 253 | 1.0 | 3.0 | 0.00 | 0.00 | 0.00 | 34 | 1015.0 |
| 20260507085017 | 65 | 231 | 0.0 | 1.0 | 0.00 | 0.00 | 0.00 | 34 | 1015.0 |
| 20260507084517 | 65 | 233 | 0.0 | 0.0 | 0.00 | 0.00 | 0.00 | 35 | 1015.1 |
| 20260507084017 | 65 | 233 | 0.0 | 0.0 | 0.00 | 0.00 | 0.00 | 35 | 1015.1 |
| 20260507083517 | 65 | 231 | 0.0 | 0.0 | 0.00 | 0.00 | 0.00 | 34 | 1015.1 |
| 20260507083016 | 66 | 233 | 0.0 | 0.0 | 0.00 | 0.00 | 0.00 | 34 | 1015.2 |
| 20260507082516 | 66 | 233 | 0.0 | 0.0 | 0.00 | 0.00 | 0.00 | 33 | 1015.2 |
| 20260507082017 | 66 | 232 | 0.0 | 0.0 | 0.00 | 0.00 | 0.00 | 33 | 1015.2 |
| 20260507081517 | 66 | 233 | 0.0 | 0.0 | 0.00 | 0.00 | 0.00 | 32 | 1015.2 |
| 20260507081016 | 66 | 231 | 0.0 | 0.0 | 0.00 | 0.00 | 0.00 | 32 | 1015.2 |
| 20260507080516 | 66 | 234 | 0.0 | 0.0 | 0.00 | 0.00 | 0.00 | 32 | 1015.2 |
| 20260507080017 | 66 | 231 | 0.0 | 0.0 | 0.00 | 0.00 | 0.00 | 32 | 1015.2 |
| 20260507075516 | 66 | 233 | 0.0 | 0.0 | 0.00 | 0.00 | 0.00 | 32 | 1015.2 |
| 20260507075016 | 66 | 231 | 0.0 | 0.0 | 0.00 | 0.00 | 0.00 | 31 | 1015.2 |
| 20260507074516 | 67 | 231 | 0.0 | 3.0 | 0.00 | 0.00 | 0.00 | 31 | 1015.1 |
| 20260507074016 | 67 | 232 | 0.0 | 3.0 | 0.00 | 0.00 | 0.00 | 32 | 1015.1 |
| 20260507073517 | 67 | 222 | 0.0 | 1.0 | 0.00 | 0.00 | 0.00 | 31 | 1015.1 |
| 20260507073017 | 68 | 131 | 0.0 | 0.0 | 0.00 | 0.00 | 0.00 | 30 | 1015.1 |
| 20260507072517 | 68 | 133 | 0.0 | 1.0 | 0.00 | 0.00 | 0.00 | 29 | 1015.0 |
| 20260507072016 | 68 | 133 | 0.0 | 1.0 | 0.00 | 0.00 | 0.00 | 31 | 1015.0 |
| 20260507071517 | 68 | 131 | 0.0 | 2.0 | 0.00 | 0.00 | 0.00 | 31 | 1015.0 |
| 20260507071017 | 68 | 134 | 0.0 | 2.0 | 0.00 | 0.00 | 0.00 | 31 | 1015.0 |
| 20260507070517 | 68 | 140 | 0.0 | 1.0 | 0.00 | 0.00 | 0.00 | 30 | 1015.0 |
| 20260507070017 | 68 | 138 | 0.0 | 1.0 | 0.00 | 0.00 | 0.00 | 30 | 1015.0 |
| 20260507065517 | 69 | 137 | 0.0 | 1.0 | 0.00 | 0.00 | 0.00 | 30 | 1015.0 |
| 20260507065017 | 69 | 141 | 0.0 | 0.0 | 0.00 | 0.00 | 0.00 | 30 | 1015.0 |
| 20260507064516 | 69 | 144 | 0.0 | 1.0 | 0.00 | 0.00 | 0.00 | 30 | 1015.0 |
| 20260507064016 | 69 | 146 | 0.0 | 2.0 | 0.00 | 0.00 | 0.00 | 30 | 1015.0 |
| 20260507063516 | 69 | 151 | 0.0 | 2.0 | 0.00 | 0.00 | 0.00 | 29 | 1015.0 |
| 20260507063017 | 69 | 153 | 0.0 | 1.0 | 0.00 | 0.00 | 0.00 | 29 | 1015.0 |
| 20260507062517 | 69 | 132 | 0.0 | 1.0 | 0.00 | 0.00 | 0.00 | 30 | 1015.0 |
| 20260507062017 | 69 | 130 | 0.0 | 2.0 | 0.00 | 0.00 | 0.00 | 30 | 1015.0 |
| 20260507061517 | 69 | 128 | 0.0 | 2.0 | 0.00 | 0.00 | 0.00 | 30 | 1015.0 |
| 20260507061016 | 69 | 121 | 0.0 | 1.0 | 0.00 | 0.00 | 0.00 | 30 | 1015.0 |
| 20260507060516 | 69 | 136 | 1.0 | 4.0 | 0.00 | 0.00 | 0.00 | 30 | 1015.0 |
| 20260507060016 | 69 | 145 | 1.0 | 4.0 | 0.00 | 0.00 | 0.00 | 29 | 1015.0 |
| 20260507055517 | 70 | 143 | 0.0 | 4.0 | 0.00 | 0.00 | 0.00 | 29 | 1015.0 |
| 20260507055017 | 70 | 150 | 0.0 | 0.0 | 0.00 | 0.00 | 0.00 | 29 | 1015.1 |
| 20260507054517 | 70 | 150 | 0.0 | 0.0 | 0.00 | 0.00 | 0.00 | 28 | 1015.1 |
| 20260507054016 | 70 | 143 | 0.0 | 0.0 | 0.00 | 0.00 | 0.00 | 28 | 1015.1 |
| 20260507053517 | 70 | 148 | 0.0 | 0.0 | 0.00 | 0.00 | 0.00 | 28 | 1015.1 |
| 20260507053016 | 70 | 144 | 0.0 | 0.0 | 0.00 | 0.00 | 0.00 | 28 | 1015.0 |
| 20260507052516 | 71 | 147 | 0.0 | 0.0 | 0.00 | 0.00 | 0.00 | 27 | 1015.0 |
| 20260507052017 | 71 | 147 | 0.0 | 0.0 | 0.00 | 0.00 | 0.00 | 28 | 1015.0 |
| 20260507051517 | 71 | 148 | 0.0 | 0.0 | 0.00 | 0.00 | 0.00 | 28 | 1014.9 |
| 20260507051016 | 71 | 119 | 0.0 | 2.0 | 0.00 | 0.00 | 0.00 | 28 | 1014.9 |
| 20260507050517 | 72 | 120 | 0.0 | 2.0 | 0.00 | 0.00 | 0.00 | 28 | 1014.9 |
| 20260507050016 | 72 | 121 | 1.0 | 3.0 | 0.00 | 0.00 | 0.00 | 28 | 1014.8 |
| 20260507045516 | 72 | 118 | 1.0 | 3.0 | 0.00 | 0.00 | 0.00 | 28 | 1014.8 |
| 20260507045016 | 72 | 99 | 0.0 | 2.0 | 0.00 | 0.00 | 0.00 | 28 | 1014.7 |
| 20260507044516 | 72 | 103 | 0.0 | 0.0 | 0.00 | 0.00 | 0.00 | 28 | 1014.7 |
| 20260507044016 | 72 | 107 | 0.0 | 0.0 | 0.00 | 0.00 | 0.00 | 28 | 1014.6 |
| 20260507043517 | 73 | 108 | 0.0 | 0.0 | 0.00 | 0.00 | 0.00 | 28 | 1014.6 |
| 20260507043016 | 73 | 108 | 0.0 | 0.0 | 0.00 | 0.00 | 0.00 | 27 | 1014.6 |
| 20260507042516 | 73 | 109 | 0.0 | 0.0 | 0.00 | 0.00 | 0.00 | 27 | 1014.5 |
| 20260507042016 | 73 | 110 | 0.0 | 0.0 | 0.00 | 0.00 | 0.00 | 27 | 1014.4 |
| 20260507041516 | 74 | 111 | 0.0 | 0.0 | 0.00 | 0.00 | 0.00 | 26 | 1014.4 |
| 20260507041017 | 74 | 108 | 0.0 | 1.0 | 0.00 | 0.00 | 0.00 | 27 | 1014.3 |
| 20260507040517 | 74 | 110 | 0.0 | 1.0 | 0.00 | 0.00 | 0.00 | 26 | 1014.2 |
| 20260507040016 | 74 | 108 | 0.0 | 2.0 | 0.00 | 0.00 | 0.00 | 26 | 1014.1 |
| 20260507035517 | 75 | 107 | 0.0 | 2.0 | 0.00 | 0.00 | 0.00 | 26 | 1014.1 |
| 20260507035017 | 75 | 95 | 0.0 | 3.0 | 0.00 | 0.00 | 0.00 | 25 | 1014.0 |
| 20260507034516 | 75 | 94 | 0.0 | 3.0 | 0.00 | 0.00 | 0.00 | 26 | 1013.9 |
| 20260507034017 | 76 | 114 | 0.0 | 2.0 | 0.00 | 0.00 | 0.00 | 26 | 1013.9 |
| 20260507033517 | 76 | 114 | 0.0 | 2.0 | 0.00 | 0.00 | 0.00 | 25 | 1013.8 |
| 20260507033017 | 76 | 115 | 0.0 | 3.0 | 0.00 | 0.00 | 0.00 | 25 | 1013.7 |
| 20260507032516 | 77 | 107 | 0.0 | 3.0 | 0.00 | 0.00 | 0.00 | 25 | 1013.6 |
| 20260507032017 | 77 | 109 | 1.0 | 5.0 | 0.00 | 0.00 | 0.00 | 25 | 1013.5 |
| 20260507031517 | 77 | 142 | 1.0 | 5.0 | 0.00 | 0.00 | 0.00 | 24 | 1013.5 |
| 20260507031017 | 77 | 126 | 2.0 | 6.0 | 0.00 | 0.00 | 0.00 | 24 | 1013.4 |
| 20260507030517 | 77 | 139 | 3.0 | 6.0 | 0.00 | 0.00 | 0.00 | 23 | 1013.4 |
| 20260507030016 | 78 | 120 | 4.0 | 9.0 | 0.00 | 0.00 | 0.00 | 23 | 1013.3 |
| 20260507025516 | 78 | 147 | 5.0 | 10.0 | 0.00 | 0.00 | 0.00 | 22 | 1013.3 |
| 20260507025017 | 78 | 104 | 5.0 | 10.0 | 0.00 | 0.00 | 0.00 | 22 | 1013.2 |
| 20260507024517 | 78 | 127 | 4.0 | 9.0 | 0.00 | 0.00 | 0.00 | 22 | 1013.2 |
| 20260507024017 | 78 | 149 | 3.0 | 8.0 | 0.00 | 0.00 | 0.00 | 22 | 1013.2 |
| 20260507023516 | 79 | 124 | 4.0 | 8.0 | 0.00 | 0.00 | 0.00 | 22 | 1013.2 |
| 20260507023017 | 79 | 121 | 4.0 | 10.0 | 0.00 | 0.00 | 0.00 | 21 | 1013.1 |
| 20260507022517 | 79 | 116 | 5.0 | 12.0 | 0.00 | 0.00 | 0.00 | 21 | 1013.1 |
| 20260507022016 | 79 | 126 | 6.0 | 12.0 | 0.00 | 0.00 | 0.00 | 21 | 1013.1 |
| 20260507021517 | 80 | 116 | 7.0 | 10.0 | 0.00 | 0.00 | 0.00 | 21 | 1013.0 |
| 20260507021016 | 80 | 138 | 7.0 | 11.0 | 0.00 | 0.00 | 0.00 | 21 | 1013.0 |
| 20260507020517 | 80 | 141 | 8.0 | 12.0 | 0.00 | 0.00 | 0.00 | 20 | 1013.0 |
| 20260507020016 | 80 | 126 | 8.0 | 12.0 | 0.00 | 0.00 | 0.00 | 20 | 1013.0 |
| 20260507015516 | 81 | 94 | 8.0 | 15.0 | 0.00 | 0.00 | 0.00 | 20 | 1012.9 |
| 20260507015017 | 81 | 97 | 8.0 | 15.0 | 0.00 | 0.00 | 0.00 | 20 | 1012.9 |
| 20260507014517 | 81 | 130 | 9.0 | 15.0 | 0.00 | 0.00 | 0.00 | 20 | 1012.9 |
| 20260507014016 | 81 | 109 | 8.0 | 13.0 | 0.00 | 0.00 | 0.00 | 20 | 1012.9 |
| 20260507013517 | 81 | 144 | 7.0 | 10.0 | 0.00 | 0.00 | 0.00 | 20 | 1012.9 |
| 20260507013017 | 82 | 126 | 8.0 | 14.0 | 0.00 | 0.00 | 0.00 | 20 | 1012.9 |
| 20260507012517 | 82 | 119 | 7.0 | 14.0 | 0.00 | 0.00 | 0.00 | 20 | 1012.9 |
| 20260507012017 | 82 | 92 | 7.0 | 12.0 | 0.00 | 0.00 | 0.00 | 20 | 1012.8 |
| 20260507011517 | 82 | 164 | 9.0 | 14.0 | 0.00 | 0.00 | 0.00 | 20 | 1012.8 |
| 20260507011016 | 83 | 84 | 10.0 | 14.0 | 0.00 | 0.00 | 0.00 | 20 | 1012.8 |
| 20260507010517 | 83 | 80 | 9.0 | 15.0 | 0.00 | 0.00 | 0.00 | 19 | 1012.8 |
| 20260507010017 | 83 | 98 | 9.0 | 16.0 | 0.00 | 0.00 | 0.00 | 19 | 1012.8 |
| 20260507005517 | 83 | 177 | 8.0 | 16.0 | 0.00 | 0.00 | 0.00 | 19 | 1012.8 |
| 20260507005016 | 84 | 85 | 8.0 | 16.0 | 0.00 | 0.00 | 0.00 | 19 | 1012.8 |
| 20260507004516 | 84 | 94 | 5.0 | 16.0 | 0.00 | 0.00 | 0.00 | 19 | 1012.8 |
| 20260507004016 | 84 | 120 | 5.0 | 14.0 | 0.00 | 0.00 | 0.00 | 19 | 1012.8 |
| 20260507003516 | 84 | 188 | 7.0 | 14.0 | 0.00 | 0.00 | 0.00 | 18 | 1012.8 |
| 20260507003017 | 84 | 147 | 8.0 | 16.0 | 0.00 | 0.00 | 0.00 | 19 | 1012.8 |
| 20260507002517 | 84 | 86 | 8.0 | 16.0 | 0.00 | 0.00 | 0.00 | 19 | 1012.8 |
| 20260507002016 | 84 | 64 | 4.0 | 12.0 | 0.00 | 0.00 | 0.00 | 19 | 1012.8 |
| 20260507001517 | 85 | 219 | 2.0 | 8.0 | 0.00 | 0.00 | 0.00 | 19 | 1012.8 |
| 20260507001016 | 85 | 136 | 1.0 | 8.0 | 0.00 | 0.00 | 0.00 | 19 | 1012.8 |
| 20260507000517 | 85 | 153 | 4.0 | 12.0 | 0.00 | 0.00 | 0.00 | 19 | 1012.8 |
| 20260507000017 | 85 | 71 | 6.0 | 12.0 | 0.00 | 0.00 | 0.00 | 18 | 1012.9 |
| 20260506235517 | 85 | 74 | 5.0 | 11.0 | 0.00 | 0.00 | 0.00 | 19 | 1012.9 |
| 20260506235016 | 85 | 100 | 4.0 | 11.0 | 0.00 | 0.00 | 0.00 | 18 | 1013.0 |
| 20260506234517 | 85 | 182 | 3.0 | 10.0 | 0.00 | 0.00 | 0.00 | 18 | 1013.0 |
| 20260506234016 | 86 | 206 | 2.0 | 7.0 | 0.00 | 0.00 | 0.00 | 19 | 1013.0 |
| 20260506233516 | 86 | 202 | 2.0 | 8.0 | 0.00 | 0.00 | 0.00 | 20 | 1013.1 |
| 20260506233016 | 86 | 223 | 2.0 | 8.0 | 0.00 | 0.00 | 0.00 | 19 | 1013.2 |
| 20260506232516 | 86 | 103 | 2.0 | 9.0 | 0.00 | 0.00 | 0.00 | 19 | 1013.2 |
| 20260506232016 | 86 | 184 | 3.0 | 9.0 | 0.00 | 0.00 | 0.00 | 19 | 1013.3 |
| 20260506231517 | 86 | 251 | 6.0 | 17.0 | 0.00 | 0.00 | 0.00 | 18 | 1013.3 |
| 20260506231016 | 86 | 176 | 8.0 | 17.0 | 0.00 | 0.00 | 0.00 | 18 | 1013.4 |
| 20260506230517 | 86 | 90 | 6.0 | 13.0 | 0.00 | 0.00 | 0.00 | 18 | 1013.4 |
| 20260506230016 | 86 | 98 | 4.0 | 12.0 | 0.00 | 0.00 | 0.00 | 18 | 1013.5 |
| 20260506225516 | 86 | 185 | 3.0 | 9.0 | 0.00 | 0.00 | 0.00 | 19 | 1013.5 |
| 20260506225017 | 86 | 106 | 5.0 | 17.0 | 0.00 | 0.00 | 0.00 | 19 | 1013.6 |
| 20260506224516 | 86 | 45 | 5.0 | 17.0 | 0.00 | 0.00 | 0.00 | 18 | 1013.6 |
| 20260506224016 | 87 | 174 | 6.0 | 14.0 | 0.00 | 0.00 | 0.00 | 18 | 1013.7 |
| 20260506223517 | 86 | 106 | 6.0 | 14.0 | 0.00 | 0.00 | 0.00 | 18 | 1013.7 |
| 20260506223017 | 86 | 153 | 5.0 | 10.0 | 0.00 | 0.00 | 0.00 | 18 | 1013.8 |
| 20260506222517 | 86 | 44 | 6.0 | 10.0 | 0.00 | 0.00 | 0.00 | 18 | 1013.8 |
| 20260506222016 | 86 | 15 | 5.0 | 10.0 | 0.00 | 0.00 | 0.00 | 19 | 1013.9 |
| 20260506221516 | 86 | 223 | 5.0 | 12.0 | 0.00 | 0.00 | 0.00 | 19 | 1014.0 |
| 20260506221017 | 86 | 116 | 6.0 | 14.0 | 0.00 | 0.00 | 0.00 | 19 | 1014.0 |
| 20260506220517 | 86 | 159 | 5.0 | 14.0 | 0.00 | 0.00 | 0.00 | 19 | 1014.1 |
| 20260506220016 | 86 | 110 | 6.0 | 12.0 | 0.00 | 0.00 | 0.00 | 18 | 1014.2 |
| 20260506215517 | 86 | 99 | 7.0 | 13.0 | 0.00 | 0.00 | 0.00 | 18 | 1014.3 |
| 20260506215016 | 86 | 246 | 6.0 | 13.0 | 0.00 | 0.00 | 0.00 | 19 | 1014.4 |
| 20260506214516 | 86 | 198 | 4.0 | 14.0 | 0.00 | 0.00 | 0.00 | 20 | 1014.5 |
| 20260506214016 | 86 | 99 | 4.0 | 14.0 | 0.00 | 0.00 | 0.00 | 19 | 1014.6 |
| 20260506213517 | 86 | 44 | 3.0 | 8.0 | 0.00 | 0.00 | 0.00 | 19 | 1014.6 |
| 20260506213016 | 86 | 76 | 3.0 | 8.0 | 0.00 | 0.00 | 0.00 | 18 | 1014.7 |
| 20260506212517 | 86 | 235 | 3.0 | 7.0 | 0.00 | 0.00 | 0.00 | 19 | 1014.8 |
| 20260506212016 | 86 | 44 | 4.0 | 11.0 | 0.00 | 0.00 | 0.00 | 19 | 1014.9 |
| 20260506211516 | 86 | 22 | 6.0 | 13.0 | 0.00 | 0.00 | 0.00 | 18 | 1015.0 |
| 20260506211017 | 86 | 219 | 7.0 | 17.0 | 0.00 | 0.00 | 0.00 | 21 | 1015.1 |
| 20260506210517 | 86 | 133 | 4.0 | 17.0 | 0.00 | 0.00 | 0.00 | 18 | 1015.1 |
| 20260506210017 | 86 | 200 | 4.0 | 18.0 | 0.00 | 0.00 | 0.00 | 17 | 1015.2 |
| 20260506205517 | 86 | 174 | 4.0 | 18.0 | 0.00 | 0.00 | 0.00 | 17 | 1015.3 |
| 20260506205016 | 86 | 58 | 4.0 | 17.0 | 0.00 | 0.00 | 0.00 | 19 | 1015.4 |
| 20260506204516 | 86 | 139 | 5.0 | 17.0 | 0.00 | 0.00 | 0.00 | 18 | 1015.4 |
| 20260506204016 | 86 | 126 | 3.0 | 11.0 | 0.00 | 0.00 | 0.00 | 17 | 1015.5 |
| 20260506203517 | 86 | 68 | 4.0 | 12.0 | 0.00 | 0.00 | 0.00 | 18 | 1015.5 |
| 20260506203017 | 86 | 44 | 8.0 | 17.0 | 0.00 | 0.00 | 0.00 | 18 | 1015.6 |
| 20260506202517 | 86 | 102 | 7.0 | 17.0 | 0.00 | 0.00 | 0.00 | 18 | 1015.6 |
| 20260506202017 | 85 | 76 | 3.0 | 11.0 | 0.00 | 0.00 | 0.00 | 18 | 1015.7 |
| 20260506201517 | 85 | 31 | 4.0 | 12.0 | 0.00 | 0.00 | 0.00 | 18 | 1015.7 |
| 20260506201016 | 85 | 224 | 4.0 | 12.0 | 0.00 | 0.00 | 0.00 | 19 | 1015.8 |
| 20260506200517 | 85 | 144 | 4.0 | 11.0 | 0.00 | 0.00 | 0.00 | 19 | 1015.9 |
| 20260506200016 | 85 | 207 | 4.0 | 11.0 | 0.00 | 0.00 | 0.00 | 18 | 1015.9 |
| 20260506195516 | 84 | 44 | 5.0 | 11.0 | 0.00 | 0.00 | 0.00 | 18 | 1016.0 |
| 20260506195017 | 84 | 34 | 7.0 | 12.0 | 0.00 | 0.00 | 0.00 | 19 | 1016.0 |
| 20260506194517 | 84 | 20 | 7.0 | 12.0 | 0.00 | 0.00 | 0.00 | 19 | 1016.1 |
| 20260506194016 | 85 | 209 | 4.0 | 12.0 | 0.00 | 0.00 | 0.00 | 19 | 1016.1 |
| 20260506193517 | 85 | 160 | 4.0 | 10.0 | 0.00 | 0.00 | 0.00 | 19 | 1016.2 |
| 20260506193017 | 85 | 91 | 4.0 | 10.0 | 0.00 | 0.00 | 0.00 | 19 | 1016.2 |
| 20260506192516 | 85 | 69 | 8.0 | 20.0 | 0.00 | 0.00 | 0.00 | 18 | 1016.3 |
| 20260506192017 | 84 | 219 | 6.0 | 20.0 | 0.00 | 0.00 | 0.00 | 18 | 1016.3 |
| 20260506191516 | 84 | 113 | 2.0 | 10.0 | 0.00 | 0.00 | 0.00 | 20 | 1016.4 |
| 20260506191017 | 84 | 85 | 6.0 | 20.0 | 0.00 | 0.00 | 0.00 | 20 | 1016.4 |
| 20260506190517 | 84 | 162 | 7.0 | 20.0 | 0.00 | 0.00 | 0.00 | 19 | 1016.4 |
| 20260506190018 | 84 | 144 | 6.0 | 14.0 | 0.00 | 0.00 | 0.00 | 20 | 1016.5 |
| 20260506185517 | 84 | 168 | 5.0 | 11.0 | 0.00 | 0.00 | 0.00 | 20 | 1016.6 |
| 20260506185017 | 84 | 49 | 7.0 | 18.0 | 0.00 | 0.00 | 0.00 | 19 | 1016.6 |
| 20260506184517 | 84 | 104 | 8.0 | 18.0 | 0.00 | 0.00 | 0.00 | 20 | 1016.7 |
| 20260506184017 | 83 | 94 | 6.0 | 13.0 | 0.00 | 0.00 | 0.00 | 22 | 1016.8 |
| 20260506183516 | 83 | 44 | 6.0 | 13.0 | 0.00 | 0.00 | 0.00 | 20 | 1016.8 |
| 20260506183017 | 83 | 178 | 5.0 | 14.0 | 0.00 | 0.00 | 0.00 | 21 | 1016.9 |
| 20260506182517 | 83 | 115 | 5.0 | 14.0 | 0.00 | 0.00 | 0.00 | 21 | 1016.9 |
| 20260506182017 | 83 | 96 | 6.0 | 15.0 | 0.00 | 0.00 | 0.00 | 22 | 1017.0 |
| 20260506181516 | 83 | 110 | 6.0 | 15.0 | 0.00 | 0.00 | 0.00 | 21 | 1017.0 |
| 20260506181016 | 83 | 174 | 3.0 | 9.0 | 0.00 | 0.00 | 0.00 | 22 | 1017.0 |
| 20260506180517 | 83 | 150 | 6.0 | 11.0 | 0.00 | 0.00 | 0.00 | 21 | 1017.1 |
| 20260506180017 | 83 | 245 | 6.0 | 12.0 | 0.00 | 0.00 | 0.00 | 20 | 1017.1 |
| 20260506175516 | 83 | 151 | 4.0 | 12.0 | 0.00 | 0.00 | 0.00 | 21 | 1017.1 |
| 20260506175016 | 83 | 112 | 3.0 | 7.0 | 0.00 | 0.00 | 0.00 | 22 | 1017.2 |
| 20260506174517 | 83 | 34 | 4.0 | 10.0 | 0.00 | 0.00 | 0.00 | 22 | 1017.2 |
| 20260506174017 | 83 | 74 | 5.0 | 13.0 | 0.00 | 0.00 | 0.00 | 22 | 1017.2 |
| 20260506173516 | 82 | 129 | 5.0 | 13.0 | 0.00 | 0.00 | 0.00 | 23 | 1017.2 |
| 20260506173016 | 83 | 227 | 3.0 | 12.0 | 0.00 | 0.00 | 0.00 | 22 | 1017.2 |
| 20260506172516 | 82 | 116 | 3.0 | 9.0 | 0.00 | 0.00 | 0.00 | 22 | 1017.2 |
| 20260506172017 | 83 | 237 | 4.0 | 11.0 | 0.00 | 0.00 | 0.00 | 23 | 1017.2 |
| 20260506171517 | 82 | 118 | 4.0 | 11.0 | 0.00 | 0.00 | 0.00 | 21 | 1017.2 |
| 20260506171017 | 82 | 96 | 6.0 | 11.0 | 0.00 | 0.00 | 0.00 | 22 | 1017.1 |
| 20260506170517 | 82 | 98 | 6.0 | 11.0 | 0.00 | 0.00 | 0.00 | 21 | 1017.1 |
| 20260506170016 | 81 | 94 | 2.0 | 11.0 | 0.00 | 0.00 | 0.00 | 22 | 1017.1 |
| 20260506165516 | 80 | 127 | 2.0 | 10.0 | 0.00 | 0.00 | 0.00 | 22 | 1017.1 |
| 20260506165017 | 80 | 153 | 3.0 | 10.0 | 0.00 | 0.00 | 0.00 | 22 | 1017.1 |
| 20260506164516 | 79 | 73 | 4.0 | 12.0 | 0.00 | 0.00 | 0.00 | 23 | 1017.1 |
| 20260506164016 | 79 | 117 | 5.0 | 12.0 | 0.00 | 0.00 | 0.00 | 23 | 1017.1 |
| 20260506163517 | 78 | 143 | 5.0 | 10.0 | 0.00 | 0.00 | 0.00 | 23 | 1017.1 |
| 20260506163016 | 77 | 75 | 3.0 | 10.0 | 0.00 | 0.00 | 0.00 | 25 | 1017.0 |
| 20260506162517 | 77 | 143 | 3.0 | 10.0 | 0.00 | 0.00 | 0.00 | 25 | 1017.0 |
| 20260506162017 | 76 | 105 | 4.0 | 10.0 | 0.00 | 0.00 | 0.00 | 25 | 1017.0 |
| 20260506161517 | 75 | 129 | 4.0 | 8.0 | 0.00 | 0.00 | 0.00 | 25 | 1017.0 |
| 20260506161017 | 74 | 119 | 3.0 | 8.0 | 0.00 | 0.00 | 0.00 | 26 | 1017.0 |
| 20260506160517 | 74 | 76 | 3.0 | 8.0 | 0.00 | 0.00 | 0.00 | 26 | 1017.0 |
| 20260506160016 | 73 | 122 | 4.0 | 8.0 | 0.00 | 0.00 | 0.00 | 27 | 1017.0 |
| 20260506155516 | 73 | 136 | 4.0 | 8.0 | 0.00 | 0.00 | 0.00 | 28 | 1017.1 |
| 20260506155016 | 72 | 145 | 4.0 | 7.0 | 0.00 | 0.00 | 0.00 | 28 | 1017.1 |
| 20260506154516 | 72 | 99 | 3.0 | 7.0 | 0.00 | 0.00 | 0.00 | 30 | 1017.1 |
| 20260506154016 | 71 | 179 | 3.0 | 7.0 | 0.00 | 0.00 | 0.00 | 29 | 1017.2 |
| 20260506153517 | 71 | 152 | 2.0 | 7.0 | 0.00 | 0.00 | 0.00 | 30 | 1017.2 |
| 20260506153016 | 71 | 238 | 1.0 | 7.0 | 0.00 | 0.00 | 0.00 | 30 | 1017.2 |
| 20260506152517 | 70 | 208 | 2.0 | 6.0 | 0.00 | 0.00 | 0.00 | 31 | 1017.2 |
| 20260506152016 | 70 | 121 | 3.0 | 7.0 | 0.00 | 0.00 | 0.00 | 32 | 1017.2 |
| 20260506151517 | 70 | 163 | 2.0 | 7.0 | 0.00 | 0.00 | 0.00 | 32 | 1017.2 |
| 20260506151017 | 70 | 199 | 1.0 | 5.0 | 0.00 | 0.00 | 0.00 | 32 | 1017.2 |
| 20260506150516 | 69 | 133 | 2.0 | 5.0 | 0.00 | 0.00 | 0.00 | 32 | 1017.2 |
| 20260506150016 | 69 | 116 | 2.0 | 5.0 | 0.00 | 0.00 | 0.00 | 32 | 1017.2 |
| 20260506145517 | 69 | 135 | 2.0 | 7.0 | 0.00 | 0.00 | 0.00 | 32 | 1017.2 |
| 20260506145016 | 69 | 132 | 1.0 | 7.0 | 0.00 | 0.00 | 0.00 | 33 | 1017.1 |
| 20260506144517 | 68 | 219 | 1.0 | 5.0 | 0.00 | 0.00 | 0.00 | 33 | 1017.1 |
| 20260506144017 | 68 | 206 | 2.0 | 6.0 | 0.00 | 0.00 | 0.00 | 35 | 1017.0 |
| 20260506143517 | 67 | 220 | 3.0 | 8.0 | 0.00 | 0.00 | 0.00 | 37 | 1017.0 |
| 20260506143017 | 66 | 223 | 2.0 | 8.0 | 0.00 | 0.00 | 0.00 | 35 | 1016.9 |
| 20260506142517 | 66 | 250 | 1.0 | 6.0 | 0.00 | 0.00 | 0.00 | 37 | 1016.8 |
| 20260506142017 | 65 | 199 | 1.0 | 4.0 | 0.00 | 0.00 | 0.00 | 36 | 1016.8 |